Weather in Kurmysh

Russia / Nizhny Novgorod Oblast'     55°50′02″N   46°03′21″E
temp.,
°C
wind,
m/s
gust,
m/s
humid.,
%
clouds,
%
prec.,
mm/h
press.,
hPa
HPBL,
m
16 january, sun
sun1600:00−10nw41195100 0.1 991353
03:00−9wnw389689 0.3 992201
06:00−5nw5119494 0.3 993632
09:00−6nw6129387 0.6 996599
12:00−6nw6119296 0.1 999837
15:00−6nw61190100 0.2 1001596
18:00−9wnw5119491 0.1 1003286
21:00−12w3897100 0.1 1004113
17 january, mon
mon1700:00−11wsw499586 0.0 1004199
03:00−11sw5129397 0.0 1003283
06:00−10ssw61492100 0.0 1001357
09:00−9ssw7168772 0.0 999449
12:00−7ssw81788100 0.0 998531
15:00−6ssw8178792 0.0 996584
18:00−6ssw81787100 0.0 995665
21:00−5ssw81694100 0.8 995793
18 january, tue
tue1800:00−5ssw71591100 0.3 995697
03:00−4s71493100 0.7 996621
06:00−3s61393100 0.3 996591
09:00−2s51297100 0.9 997604
12:000s61297100 0.9 999665
15:000s51197100 1.4 1000592
18:000ssw51198100 0.4 1002623
21:00−1ssw51194100 0.6 1005377
19 january, wed
wed1900:00−1s41097100 0.3 1007452
03:00−2s51097100 0.8 1008394
06:00−2sse5119680 0.6 1009459
09:00−3ssw4109194 0.7 1011318
12:00−3s6118694 0.0 1013730
15:00−6s5109030 0.1 1015322
18:00−10s389456 0.0 1017144
21:00−15s239840 0.0 101939
20 january, thu
thu2000:00−20s2210093 0.0 102014
03:00−22s2210095 0.0 102215
06:00−23s2210099 0.0 102215
09:00−22s2210099 0.0 102325
12:00−13s369663 0.0 1023141
15:00−13s22966 0.0 102210
18:00−19sse2210060 0.0 102312
21:00−21s2210084 0.0 102315